Regional Weather Roundup
Issued by NWS

Home | Current Version | Previous Version | Graphics & Text | Print | Product List | Glossary On
Versions: 1 2 3 4 5 6 7 8 9 10 11 12 13 14 15 16 17 18 19 20 21 22 23 24 25 26 27 28 29 30 31 32 33 34 35 36 37 38 39 40 41 42 43 44 45 46 47 48 49 50
000
ASUS43 KDMX 112207
RWRIA

WEATHER ROUNDUP FOR IOWA
NATIONAL WEATHER SERVICE DES MOINES IA
500 PM CDT FRI JUL 11 2014

NOTE: "FAIR" INDICATES FEW OR NO CLOUDS BELOW 12,000 FEET WITH NO
SIGNIFICANT WEATHER AND/OR OBSTRUCTIONS TO VISIBILITY.

* - THESE STATIONS ARE NOT NWS STATIONS...THUS NOT UNDER NWS
QUALITY CONTROL.  THEY ALSO DO NOT REPORT WEATHER SUCH
AS PRECIPITATION OR FOG.

IAZ001>003-012>014-020>022-031>034-043>046-112300-
   NORTHWEST IOWA

CITY           SKY/WX    TMP DP  RH WIND       PRES   REMARKS
CARROLL *      CLOUDY    75  70  83 S7        30.01S
CHEROKEE *     CLOUDY    77  72  83 SW9       30.01R
DENISON *      CLOUDY    75  72  88 CALM      30.00R
LE MARS *      MOSUNNY   75  70  83 S7G14     30.01S
ORANGE CITY *  PTSUNNY   79  70  73 SW9       30.01R HX  81
SHELDON *      CLOUDY    77  70  78 S10       29.99S
SIOUX CITY     CLOUDY    76  71  85 SE7       30.00R
SPENCER        MOSUNNY   78  69  73 SW7       30.00R HX  80
STORM LAKE *   CLOUDY    75  72  88 SW9       30.02S
$$

IAZ055>058-069>071-079>083-090>094-112300-
   SOUTHWEST IOWA

CITY           SKY/WX    TMP DP  RH WIND       PRES   REMARKS
ATLANTIC *     PTSUNNY   77  73  88 E3        29.99S
AUDUBON *      SUNNY     77  73  88 E3        30.02S
CLARINDA *     SUNNY     82  73  74 S9        29.99F HX  88
COUNCIL BLFS * SUNNY     79  75  89 SE7       29.97F HX  82
CRESTON *      SUNNY     79  73  83 S9        30.02S HX  82
HARLAN  *      SUNNY     77  73  88 CALM      30.03S
LAMONI         CLOUDY    80  72  76 S9        30.01F HX  84
RED OAK *      SUNNY     81  73  78 S6        29.98S HX  85
SHENANDOAH *   SUNNY     84  75  74 S10       29.97S HX  92
$$

IAZ047>049-059>061-072>074-084-112300-
   CENTRAL IOWA

CITY           SKY/WX    TMP DP  RH WIND       PRES   REMARKS
AMES           CLOUDY    74  69  85 E6        30.02F
ANKENY *       PTSUNNY   75  70  83 NE6       30.01F
CHARITON *     MOSUNNY   79  72  78 SW7       30.02S HX  82
DES MOINES     LGT RAIN  78  70  76 CALM      30.00F HX  80
GRINNELL*      CLOUDY    75  68  78 CALM      30.05F
KNOXVILLE *    MOSUNNY   77  72  83 SW5       30.01R
MARSHALLTOWN   CLOUDY    76  68  76 S6        30.04S
PELLA *        CLOUDY    77  70  78 CALM      30.04R
PERRY *        CLOUDY    75  70  83 SE3       30.02R
$$

IAZ004>006-015-016-023>025-035-036-112300-
   NORTH CENTRAL IOWA

CITY           SKY/WX    TMP DP  RH WIND       PRES   REMARKS
ALGONA *       MOSUNNY   79  70  73 S9        30.00S HX  81
CLARION *      PTSUNNY   77  68  73 S10       30.01F
ESTHERVILLE    PTSUNNY   82  69  64 SW12      29.99R HX  85
FORT DODGE *   CLOUDY    75  66  73 S8        30.02R
MASON CITY     CLOUDY    77  67  71 S13       30.02F
FOREST CITY *  CLOUDY    77  68  73 S10       30.00F
IOWA FALLS *   CLOUDY    75  66  73 S10       30.04F
$$

IAZ007>011-017>019-026>030-037>042-050>054-066-112300-
   NORTHEAST IOWA

CITY           SKY/WX    TMP DP  RH WIND       PRES   REMARKS
CEDAR RAPIDS   CLOUDY    75  65  70 SE9       30.02S
CHARLES CITY * PTSUNNY   75  66  73 S9G15     30.04F
CLINTON *      CLOUDY    75  64  69 S9        30.09F
DECORAH *        N/A    N/A N/A N/A MISG        N/A
DUBUQUE        CLOUDY    73  64  73 SE10      30.06F
MONTICELLO *   MOSUNNY   77  68  73 SE5       30.04F
OELWEIN *      SUNNY     77  77 100 S12       30.05F
WATERLOO       CLOUDY    77  67  71 S14       30.03S
$$

IAZ064-065-067-068-078-112300-
   EAST CENTRAL IOWA

CITY           SKY/WX    TMP DP  RH WIND       PRES   REMARKS
DAVENPORT      CLOUDY    78  66  66 S12       30.07S HX  80
IOWA CITY      CLOUDY    75  69  81 SE13G20   30.01F
MT. PLEASANT * LGT RAIN  75  68  78 SE12      30.00F
MUSCATINE *    MOSUNNY   79  66  65 SE12      30.02F HX  81
QUAD CITIES    CLOUDY    78  66  66 S8        30.07R HX  80
$$

IAZ062-063-075>077-085>089-095>099-112300-
   SOUTHEAST IOWA

CITY           SKY/WX    TMP DP  RH WIND       PRES   REMARKS
BURLINGTON     CLOUDY    80  69  69 S6        30.09R HX  83
FAIRFIELD *    MOSUNNY   75  70  83 SE20      30.01S
FORT MADISON * SUNNY     81  72  74 SE6       30.08F HX  84
KEOKUK *       MOSUNNY   79  72  78 SE8       30.06F HX  82
OSKALOOSA *      N/A     73  70  88 SE6       30.02R
CENTERVILLE *  LGT RAIN  77  73  88 SE5       30.04S
OTTUMWA        CLOUDY    74  70  87 S8        29.99R
WASHINGTON *   SUNNY     75  70  83 SE16G22   29.98F
$$

ABBREVIATIONS USED IN REMARKS
   TC - TEMPERATURES IN CELSIUS
  WCI - WIND CHILL INDEX
   HX - HEAT INDEX
  VSB - VISIBILITY
$$



USA.gov is the U.S. government's official web portal to all federal, state and local government web resources and services.